Погода в Заозерном

Россия / Кемеровская область (Кузбасс)     55°53′26″N   84°43′14″E
темп.,
°C
ветер,
м/с
пор.,
м/с
влажн.,
%
обл.,
%
осадки,
мм/ч
давл.,
гПа
погр.,
м
26 октября, вт
вт2601:00+5зюз3781100 0.0 1017142
04:00+4юз2287100 0.0 101712
07:00+4юв3584100 0.0 1016124
10:00+5ююв41177100 0.2 1012372
13:00+8ю61463100 0.2 1008623
16:00+9ю81750100 0.0 1003922
19:00+9ююз91753100 0.0 1002835
22:00+8зюз91663100 0.0 10021252
27 октября, ср
ср2701:00+4з9166687 0.6 10081427
04:00+1з8156861 0.2 10141612
07:00−1з7126956 0.2 10191000
10:00−1з610665 0.0 10231062
13:00+1зюз684676 0.0 10251204
16:00+2зюз58455 0.0 10241234
19:00−1юз4956100 0.0 1025290
22:00−1юз4106199 0.0 1025362
28 октября, чт
чт2801:00−2юз486467 0.0 1026286
04:00−2юз376732 0.0 1026216
07:00−3юз3867100 0.0 1027217
10:00−1ююз4960100 0.0 1027354
13:00+2юз5847100 0.0 1026720
16:00+3ююз58465 0.0 1025879
19:00−1ю410576 0.0 1025212
22:00−1ююз51355100 0.0 1024324
29 октября, пт
пт2901:00−1ююз5135269 0.0 1024384
04:00−1ю61449100 0.0 1023385
07:000ю61547100 0.0 1022436
10:00+1ююз71652100 0.0 1021575
13:00+4ююз71554100 0.0 1020784
16:00+5ююз71452100 0.0 1020787
19:00+3ююз61459100 0.0 1021478
22:00+2ююз6135896 0.0 1021399
30 октября, сб
сб3001:00+2ююз6135398 0.0 1020374
04:00+1ююз61455100 0.0 1020410
07:00+2ююз71653100 0.0 1019516
10:00+3ююз81651100 0.0 1018762
13:00+4юз81657100 0.0 10181343
16:00+1юз71395100 0.6 1019906
19:00−3зсз6116310 1.5 1024913
22:00−4з596456 0.0 1027664